| time (UTC) | temp C | wind direction | speed KPH | gust KPH | rain 1hr cm | rain 24hr cm | rain mn cm | humidity % | barometer mb |
| 20260504150903 | 11 | 333 | 29.0 | 41.8 | 0.00 | 0.30 | 0.00 | 51 | 1009.9 |
| 20260504140859 | 10 | 322 | 22.5 | 37.0 | 0.00 | 0.30 | 0.00 | 64 | 1009.8 |
| 20260504081759 | 12 | 334 | 16.1 | 20.9 | 0.00 | 0.30 | 0.00 | 50 | 1003.7 |
| 20260504080920 | 12 | 337 | 16.1 | 19.3 | 0.00 | 0.30 | 0.00 | 53 | 1003.8 |
| 20260504050001 | 10 | 288 | 6.4 | 8.0 | 0.00 | 0.30 | 0.30 | 64 | 1005.6 |
| 20260504045400 | 10 | 288 | 6.4 | 8.0 | 0.00 | 0.30 | 0.30 | 65 | 1005.5 |
| 20260504044500 | 10 | 288 | 6.4 | 8.0 | 0.00 | 0.30 | 0.30 | 66 | 1005.7 |
| 20260504043600 | 10 | 288 | 6.4 | 11.3 | 0.00 | 0.30 | 0.30 | 66 | 1005.6 |
| 20260504042701 | 11 | 287 | 8.0 | 11.3 | 0.00 | 0.30 | 0.30 | 66 | 1005.7 |
| 20260504041821 | 11 | 288 | 11.3 | 16.1 | 0.00 | 0.30 | 0.30 | 66 | 1005.6 |
| 20260504040900 | 11 | 275 | 9.7 | 17.7 | 0.00 | 0.30 | 0.30 | 69 | 1005.6 |
| 20260504040000 | 10 | 248 | 8.0 | 12.9 | 0.00 | 0.30 | 0.30 | 73 | 1005.5 |
| 20260504035400 | 10 | 259 | 8.0 | 12.9 | 0.00 | 0.30 | 0.30 | 75 | 1005.6 |
| 20260504034500 | 10 | 360 | 1.6 | 8.0 | 0.00 | 0.30 | 0.30 | 73 | 1005.6 |
| 20260504033600 | 10 | 360 | 1.6 | 6.4 | 0.00 | 0.30 | 0.30 | 73 | 1005.6 |
| 20260504032721 | 11 | 360 | 4.8 | 9.7 | 0.00 | 0.30 | 0.30 | 72 | 1005.7 |
| 20260504031821 | 11 | 360 | 9.7 | 14.5 | 0.00 | 0.30 | 0.30 | 73 | 1005.6 |
| 20260504030900 | 11 | 2 | 9.7 | 17.7 | 0.00 | 0.30 | 0.30 | 73 | 1005.5 |
| 20260504030001 | 11 | 175 | 6.4 | 9.7 | 0.00 | 0.30 | 0.30 | 71 | 1005.5 |
| 20260504025400 | 11 | 175 | 6.4 | 9.7 | 0.00 | 0.30 | 0.30 | 69 | 1005.5 |
| 20260504024500 | 12 | 173 | 9.7 | 14.5 | 0.00 | 0.30 | 0.30 | 68 | 1005.6 |
| 20260504023600 | 12 | 168 | 9.7 | 16.1 | 0.00 | 0.30 | 0.30 | 68 | 1005.5 |
| 20260504022700 | 12 | 165 | 9.7 | 16.1 | 0.00 | 0.30 | 0.30 | 65 | 1005.4 |
| 20260504021800 | 13 | 164 | 11.3 | 17.7 | 0.00 | 0.30 | 0.30 | 64 | 1005.5 |
| 20260504020900 | 13 | 159 | 12.9 | 22.5 | 0.00 | 0.30 | 0.30 | 62 | 1005.5 |
| 20260504020000 | 14 | 156 | 12.9 | 19.3 | 0.00 | 0.30 | 0.30 | 60 | 1005.6 |
| 20260504015400 | 15 | 150 | 9.7 | 16.1 | 0.00 | 0.30 | 0.30 | 59 | 1005.7 |
| 20260504014500 | 15 | 158 | 9.7 | 17.7 | 0.00 | 0.30 | 0.30 | 58 | 1005.8 |
| 20260504013601 | 16 | 162 | 12.9 | 22.5 | 0.00 | 0.30 | 0.30 | 56 | 1006.0 |
| 20260504012700 | 16 | 162 | 12.9 | 22.5 | 0.00 | 0.30 | 0.30 | 54 | 1006.1 |
| 20260504011801 | 17 | 157 | 11.3 | 19.3 | 0.00 | 0.30 | 0.30 | 53 | 1006.2 |
| 20260504010902 | 17 | 157 | 14.5 | 24.1 | 0.00 | 0.30 | 0.30 | 51 | 1006.4 |
| 20260504010001 | 17 | 156 | 12.9 | 20.9 | 0.00 | 0.30 | 0.30 | 50 | 1006.5 |
| 20260504005401 | 18 | 149 | 11.3 | 16.1 | 0.00 | 0.30 | 0.30 | 51 | 1006.6 |
| 20260504004501 | 18 | 152 | 9.7 | 14.5 | 0.00 | 0.30 | 0.30 | 51 | 1006.7 |
| 20260504003601 | 18 | 160 | 11.3 | 16.1 | 0.00 | 0.30 | 0.30 | 51 | 1006.8 |
| 20260504002722 | 18 | 158 | 11.3 | 17.7 | 0.00 | 0.30 | 0.30 | 52 | 1007.0 |
| 20260504001802 | 18 | 159 | 12.9 | 17.7 | 0.00 | 0.30 | 0.30 | 53 | 1007.1 |
| 20260504000901 | 18 | 151 | 11.3 | 19.3 | 0.00 | 0.30 | 0.30 | 52 | 1007.3 |
| 20260504000022 | 18 | 4 | 11.3 | 19.3 | 0.00 | 0.30 | 0.30 | 54 | 1007.4 |
| 20260503235422 | 18 | 6 | 12.9 | 20.9 | 0.00 | 0.30 | 0.30 | 53 | 1007.6 |
| 20260503234501 | 18 | 11 | 12.9 | 19.3 | 0.00 | 0.30 | 0.30 | 54 | 1007.8 |
| 20260503233602 | 17 | 123 | 12.9 | 22.5 | 0.00 | 0.30 | 0.30 | 53 | 1007.9 |
| 20260503232701 | 17 | 1 | 11.3 | 20.9 | 0.00 | 0.30 | 0.30 | 55 | 1008.1 |
| 20260503231801 | 17 | 98 | 11.3 | 22.5 | 0.00 | 0.30 | 0.30 | 53 | 1008.2 |
| 20260503230901 | 17 | 360 | 11.3 | 17.7 | 0.00 | 0.30 | 0.30 | 54 | 1008.4 |
| 20260503230001 | 17 | 359 | 14.5 | 24.1 | 0.00 | 0.30 | 0.30 | 51 | 1008.7 |
| 20260503225401 | 17 | 359 | 14.5 | 24.1 | 0.00 | 0.30 | 0.30 | 56 | 1008.8 |
| 20260503224501 | 17 | 358 | 17.7 | 24.1 | 0.00 | 0.30 | 0.30 | 56 | 1009.0 |
| 20260503223602 | 16 | 360 | 14.5 | 24.1 | 0.00 | 0.30 | 0.30 | 61 | 1009.3 |
| 20260503222701 | 16 | 360 | 9.7 | 17.7 | 0.00 | 0.30 | 0.30 | 68 | 1009.7 |
| 20260503221801 | 16 | 360 | 12.9 | 20.9 | 0.00 | 0.30 | 0.30 | 60 | 1009.7 |
| 20260503220901 | 16 | 360 | 14.5 | 19.3 | 0.00 | 0.30 | 0.30 | 63 | 1009.9 |
| 20260503220001 | 16 | 360 | 14.5 | 19.3 | 0.00 | 0.30 | 0.30 | 66 | 1010.1 |
| 20260503215422 | 16 | 360 | 12.9 | 19.3 | 0.00 | 0.30 | 0.30 | 66 | 1010.0 |
| 20260503214501 | 15 | 360 | 12.9 | 19.3 | 0.03 | 0.30 | 0.30 | 69 | 1010.1 |
| 20260503213602 | 14 | 1 | 14.5 | 22.5 | 0.08 | 0.30 | 0.30 | 73 | 1010.3 |
| 20260503212701 | 14 | 1 | 8.0 | 17.7 | 0.08 | 0.30 | 0.30 | 73 | 1010.2 |
| 20260503211823 | 12 | 360 | 4.8 | 8.0 | 0.08 | 0.30 | 0.30 | 76 | 1010.7 |
| 20260503210901 | 12 | 350 | 4.8 | 12.9 | 0.08 | 0.30 | 0.30 | 69 | 1011.0 |
| 20260503210003 | 12 | 328 | 8.0 | 22.5 | 0.08 | 0.30 | 0.30 | 73 | 1011.4 |
| 20260503205423 | 12 | 309 | 19.3 | 33.8 | 0.08 | 0.30 | 0.30 | 72 | 1011.8 |
| 20260503204502 | 14 | 296 | 27.4 | 46.7 | 0.05 | 0.28 | 0.28 | 61 | 1011.7 |
| 20260503203601 | 17 | 115 | 1.6 | 6.4 | 0.00 | 0.23 | 0.23 | 48 | 1011.1 |
| 20260503202702 | 17 | 121 | 3.2 | 11.3 | 0.00 | 0.23 | 0.23 | 48 | 1010.5 |
| 20260503201802 | 17 | 32 | 11.3 | 19.3 | 0.00 | 0.23 | 0.23 | 49 | 1010.8 |
| 20260503200902 | 17 | 157 | 6.4 | 14.5 | 0.00 | 0.23 | 0.23 | 54 | 1010.8 |
| 20260503200002 | 17 | 152 | 8.0 | 14.5 | 0.00 | 0.23 | 0.23 | 51 | 1011.0 |
| 20260503195402 | 17 | 155 | 9.7 | 14.5 | 0.00 | 0.23 | 0.23 | 49 | 1011.0 |
| 20260503194502 | 17 | 134 | 9.7 | 14.5 | 0.10 | 0.23 | 0.23 | 51 | 1011.1 |
| 20260503193623 | 17 | 116 | 4.8 | 11.3 | 0.23 | 0.23 | 0.23 | 56 | 1011.1 |
| 20260503192703 | 16 | 58 | 3.2 | 6.4 | 0.23 | 0.23 | 0.23 | 49 | 1011.2 |
| 20260503191803 | 16 | 51 | 4.8 | 9.7 | 0.23 | 0.23 | 0.23 | 54 | 1011.4 |
| 20260503190903 | 17 | 59 | 9.7 | 19.3 | 0.23 | 0.23 | 0.23 | 54 | 1011.4 |
| 20260503190023 | 16 | 40 | 17.7 | 29.0 | 0.23 | 0.23 | 0.23 | 59 | 1011.5 |
| 20260503185402 | 15 | 6 | 16.1 | 29.0 | 0.23 | 0.23 | 0.23 | 58 | 1011.4 |
| 20260503184502 | 16 | 274 | 19.3 | 37.0 | 0.13 | 0.13 | 0.13 | 54 | 1012.5 |
| 20260503183602 | 18 | 323 | 14.5 | 41.8 | 0.00 | 0.00 | 0.00 | 42 | 1012.0 |
| 20260503182702 | 19 | 334 | 12.9 | 22.5 | 0.00 | 0.00 | 0.00 | 36 | 1011.9 |
| 20260503181823 | 19 | 14 | 11.3 | 20.9 | 0.00 | 0.00 | 0.00 | 36 | 1011.9 |
| 20260503180902 | 20 | 2 | 11.3 | 22.5 | 0.00 | 0.00 | 0.00 | 37 | 1012.1 |
| 20260503180002 | 19 | 14 | 14.5 | 24.1 | 0.00 | 0.00 | 0.00 | 38 | 1012.4 |
| 20260503175402 | 19 | 27 | 12.9 | 22.5 | 0.00 | 0.00 | 0.00 | 38 | 1012.4 |
| 20260503174502 | 19 | 350 | 14.5 | 24.1 | 0.00 | 0.00 | 0.00 | 37 | 1012.6 |
| 20260503173603 | 19 | 347 | 14.5 | 25.7 | 0.00 | 0.00 | 0.00 | 38 | 1012.7 |
| 20260503172702 | 19 | 349 | 16.1 | 27.4 | 0.00 | 0.00 | 0.00 | 37 | 1012.8 |
| 20260503171823 | 19 | 11 | 12.9 | 20.9 | 0.00 | 0.00 | 0.00 | 39 | 1012.9 |
| 20260503170902 | 18 | 18 | 11.3 | 24.1 | 0.00 | 0.00 | 0.00 | 40 | 1013.2 |